Orbital Elements at Epoch 2459200.5 (2020-Dec-17.0) TDB
Reference: JPL 24 (heliocentric ecliptic J2000)
Element | Value | Uncertainty (1-sigma) | Units |
e | .109821623922449 | 3.759e-08 | |
a | 2.306844014261276 | 7.1328e-09 | au |
q | 2.053502658479322 | 8.808e-08 | au |
i | 4.304487690799024 | 4.2231e-06 | deg |
node | 126.9027698885356 | 4.5429e-05 | deg |
peri | 18.74559577170177 | 4.7907e-05 | deg |
M | 307.0489124144221 | 1.5557e-05 | deg |
tp | 2459388.734036099672 (2021-Jun-23.23403610) | 5.5494e-05 | TDB |
period | 1279.751863195699 3.50 | 5.9355e-06 1.625e-08 | d yr |
n | .2813045328186007 | 1.3047e-09 | deg/d |
Q | 2.560185370043231 | 7.9161e-09 | au |
|
| | Orbit Determination Parameters
Additional Information
|